Погода в Лельме

Россия / Архангельская область     62°02′39″N   40°14′20″E
темп.,
°C
ветер,
м/с
пор.,
м/с
влажн.,
%
обл.,
%
осадки,
мм/ч
давл.,
гПа
погр.,
м
5 августа, чт
чт500:00+9зюз39780 0.0 1013176
03:00+7з22885 0.0 101523
06:00+10сз117573 0.0 101691
09:00+13ю116179 0.0 1017321
12:00+19зюз24417 0.0 10171857
15:00+19з233894 0.0 10172323
18:00+16сз1260100 0.0 101839
21:00+14в006243 0.0 101810
6 августа, пт
пт600:00+11всв007357 0.0 101911
03:00+9св128499 0.0 101931
06:00+11всв1477100 0.0 1019130
09:00+14всв136599 0.0 1019328
12:00+19в3446100 0.0 10191865
15:00+16юв3562100 0.1 1019791
18:00+15юв266773 0.0 1019523
21:00+10вюв239170 0.0 102088
7 августа, сб
сб700:00+11всв2686100 0.0 1020211
03:00+12в3107898 0.0 1020445
06:00+12всв31078100 0.0 1021420
09:00+15в4106475 0.0 1020739
12:00+19в5947100 0.0 10201324
15:00+20в574690 0.0 10191325
18:00+19в4852100 0.0 10181224
21:00+16в41261100 0.0 1018596
8 августа, вс
вс800:00+15вюв31264100 0.0 1018672
03:00+12в41398100 4.3 1018548
06:00+11в51598100 4.2 1017736
09:00+11в61697100 7.5 1016845
12:00+11в51297100 0.6 1016758
15:00+11в51296100 0.6 1017688
18:00+12в41197100 0.2 1016515
21:00+12в3998100 0.4 1016432
9 августа, пн
пн900:00+11всв3799100 0.6 1016330
03:00+11св2599100 1.1 1016286
06:00+11всв1499100 0.0 1015238
09:00+12ссв2398100 0.0 1016286
12:00+12ссв1297100 0.0 1017379
15:00+13ссв2395100 0.1 1018407
18:00+13св1294100 0.0 1019286
21:00+12всв149883 0.1 1019161